Weather History for KAXS - April, 2014

Change the Weather History Date:

Thursday, April 3, 2014

  Actual Average (KLTS) Record (KLTS)
Temperature  
Mean Temperature 63 °F -  
Max Temperature 80 °F 68 °F 101 °F (2011)
Min Temperature 46 °F 44 °F 30 °F (2009)
Degree Days  
Heating Degree Days 2    
Growing Degree Days 13 (Base 50)    
Moisture  
Dew Point 44 °F    
Average Humidity 54    
Maximum Humidity 95    
Minimum Humidity 9    
Precipitation  
Precipitation 0.00 in - - ()
Sea Level Pressure  
Sea Level Pressure 29.72 in    
Wind  
Wind Speed 14 mph (WNW)    
Max Wind Speed 39 mph    
Max Gust Speed 52 mph    
Visibility 8 miles    
Events Fog    
Averages and records for this station are not official NWS values.
T = Trace of Precipitation, MM = Missing Value Source: NWS Daily Summary

Daily Weather History Graph

Daily Weather History Graph

Search for Another Location

Airport or City:

Trip Planner

Search our weather history database for the weather conditions in past years. The results will help you decide how hot, cold, wet, or windy it might be!

Date:

Astronomy

Apr. 03, 2014 Rise Set
Actual Time 7:21 AM CDT 8:00 PM CDT
Civil Twilight 6:56 AM CDT 8:25 PM CDT
Nautical Twilight 6:26 AM CDT 8:55 PM CDT
Astronomical Twilight 5:55 AM CDT 9:26 PM CDT
Moon 9:59 AM CDT No Moon Set
Length of Visible Light 13h 29m
Length of Day
12h 38m
Waxing Crescent, 17% of the Moon is Illuminated
Apr 3
Waxing Crescent
Apr 7
First Quarter
Apr 15
Full
Apr 22
Last Quarter
Apr 29
New

Hourly Weather History & Observations

Time (CDT) Temp. Windchill Dew Point Humidity Pressure Visibility Wind Dir Wind Speed Gust Speed Precip Events Conditions
12:15 AM 72.9 °F - 63.0 °F 71% 29.63 in 10.0 mi South 16.1 mph - N/A   Clear
12:35 AM 72.1 °F - 62.8 °F 72% 29.62 in 10.0 mi South 17.3 mph 21.9 mph N/A   Clear
12:55 AM 72.0 °F - 62.8 °F 73% 29.62 in 10.0 mi South 15.0 mph 21.9 mph N/A   Clear
1:20 AM 71.2 °F - 62.8 °F 75% 29.62 in 10.0 mi South 15.0 mph 18.4 mph N/A   Clear
1:35 AM 70.9 °F - 62.8 °F 75% 29.61 in 7.0 mi South 13.8 mph - N/A   Clear
1:55 AM 70.2 °F - 62.6 °F 77% 29.61 in 7.0 mi South 13.8 mph - N/A   Clear
2:15 AM 69.8 °F - 62.6 °F 78% 29.61 in 7.0 mi South 12.7 mph - N/A   Clear
2:35 AM 69.1 °F - 62.6 °F 80% 29.60 in 7.0 mi South 12.7 mph - N/A   Clear
2:55 AM 68.4 °F - 62.2 °F 81% 29.60 in 7.0 mi SSE 10.4 mph - N/A   Clear
3:15 AM 66.0 °F - 61.2 °F 84% 29.60 in 5.0 mi SSE 8.1 mph - N/A   Haze
3:35 AM 64.9 °F - 61.0 °F 87% 29.60 in 5.0 mi SSE 9.2 mph - N/A   Clear
3:55 AM 65.7 °F - 61.7 °F 87% 29.60 in 5.0 mi SSE 9.2 mph - N/A   Clear
4:15 AM 66.0 °F - 61.2 °F 84% 29.62 in 5.0 mi WNW 17.3 mph 25.3 mph N/A   Haze
4:35 AM 64.6 °F - 59.9 °F 85% 29.61 in 5.0 mi NNW 4.6 mph - N/A   Haze
4:55 AM 62.8 °F - 59.7 °F 90% 29.61 in 3.0 mi Calm Calm - N/A   Clear
5:15 AM 63.0 °F - 60.8 °F 93% 29.61 in 4.0 mi Calm Calm - N/A   Clear
5:35 AM 63.5 °F - 61.0 °F 91% 29.61 in 4.0 mi SSE 4.6 mph - N/A   Clear
5:55 AM 61.7 °F - 59.5 °F 93% 29.61 in 4.0 mi SE 8.1 mph - N/A   Clear
6:15 AM 61.9 °F - 59.7 °F 93% 29.62 in 4.0 mi SE 6.9 mph - N/A   Clear
6:35 AM 61.7 °F - 59.0 °F 91% 29.63 in 4.0 mi ESE 5.8 mph - N/A   Clear
6:55 AM 59.7 °F - 57.9 °F 94% 29.64 in 1.2 mi SE 6.9 mph - N/A   Mist
7:15 AM 59.9 °F - 58.1 °F 94% 29.65 in 4.0 mi SSW 3.5 mph - N/A   Clear
7:35 AM 60.1 °F - 57.7 °F 92% 29.66 in 4.0 mi SW 4.6 mph - N/A   Clear
7:55 AM 57.6 °F - 55.6 °F 93% 29.67 in 0.2 mi WSW 5.8 mph - N/A Fog Fog
8:15 AM 57.7 °F - 56.3 °F 95% 29.67 in 0.5 mi SW 5.8 mph - N/A Fog Fog
8:35 AM 58.3 °F - 56.7 °F 94% 29.67 in 3.0 mi WSW 5.8 mph - N/A   Clear
8:55 AM 59.7 °F - 56.5 °F 89% 29.67 in 10.0 mi WSW 6.9 mph - N/A   Clear
9:15 AM 62.8 °F - 52.0 °F 68% 29.70 in 10.0 mi NW 16.1 mph 21.9 mph N/A   Clear
9:35 AM 64.4 °F - 46.2 °F 52% 29.69 in 10.0 mi NW 15.0 mph - N/A   Clear
9:55 AM 58.6 °F - 46.2 °F 63% 29.69 in 10.0 mi NNW 24.2 mph - N/A   Clear
10:15 AM 58.3 °F - 46.2 °F 64% 29.70 in 10.0 mi NNW 21.9 mph 26.5 mph N/A   Clear
10:35 AM 59.0 °F - 45.0 °F 60% 29.71 in 10.0 mi NNW 21.9 mph - N/A   Clear
10:55 AM 60.3 °F - 43.3 °F 54% 29.72 in 10.0 mi NNW 19.6 mph - N/A   Clear
11:15 AM 61.3 °F - 43.0 °F 51% 29.73 in 10.0 mi NNW 16.1 mph - N/A   Clear
11:35 AM 63.0 °F - 42.3 °F 47% 29.74 in 10.0 mi NNW 15.0 mph 20.7 mph N/A   Clear
11:55 AM 64.9 °F - 40.8 °F 41% 29.74 in 10.0 mi NW 15.0 mph - N/A   Clear
12:15 PM 66.0 °F - 40.3 °F 39% 29.74 in 10.0 mi NW 11.5 mph 19.6 mph N/A   Clear
12:35 PM 67.3 °F - 40.5 °F 38% 29.75 in 10.0 mi NW 9.2 mph - N/A   Clear
12:55 PM 68.7 °F - 38.7 °F 33% 29.75 in 10.0 mi NW 6.9 mph 17.3 mph N/A   Clear
1:15 PM 69.4 °F - 37.9 °F 32% 29.75 in 10.0 mi West 10.4 mph - N/A   Clear
1:35 PM 71.2 °F - 37.4 °F 29% 29.74 in 10.0 mi WNW 8.1 mph - N/A   Clear
1:55 PM 71.6 °F - 36.9 °F 28% 29.74 in 10.0 mi Calm Calm - N/A   Clear
2:15 PM 73.9 °F - 34.0 °F 23% 29.74 in 10.0 mi NW 8.1 mph 18.4 mph N/A   Clear
2:35 PM 75.0 °F - 34.2 °F 23% 29.73 in 10.0 mi WNW 9.2 mph 20.7 mph N/A   Clear
2:55 PM 76.5 °F - 31.5 °F 19% 29.73 in 10.0 mi West 15.0 mph 19.6 mph N/A   Clear
3:15 PM 77.4 °F - 31.8 °F 19% 29.72 in 10.0 mi West 12.7 mph 19.6 mph N/A   Clear
3:35 PM 77.7 °F - 30.2 °F 18% 29.72 in 7.0 mi West 13.8 mph 27.6 mph N/A   Scattered Clouds
3:55 PM 77.9 °F - 30.7 °F 18% 29.72 in 10.0 mi West 17.3 mph 24.2 mph N/A   Scattered Clouds
4:15 PM 77.5 °F - 30.9 °F 18% 29.71 in 10.0 mi West 11.5 mph 25.3 mph N/A   Clear
4:35 PM 78.8 °F - 28.9 °F 16% 29.70 in 10.0 mi SW 9.2 mph - N/A   Clear
4:55 PM 79.9 °F - 27.3 °F 15% 29.69 in 10.0 mi WSW 8.1 mph - N/A   Clear
5:15 PM 80.2 °F - 26.4 °F 14% 29.68 in 10.0 mi WSW 12.7 mph - N/A   Clear
5:35 PM 79.0 °F - 26.2 °F 14% 29.68 in 10.0 mi West 12.7 mph - N/A   Clear
5:55 PM 78.6 °F - 22.3 °F 12% 29.70 in 5.0 mi WNW 20.7 mph 27.6 mph N/A   Haze
6:15 PM 78.1 °F - 21.2 °F 12% 29.70 in 5.0 mi WNW 25.3 mph 32.2 mph N/A   Haze
6:35 PM 78.4 °F - 21.2 °F 12% 29.72 in 7.0 mi WNW 25.3 mph 33.4 mph N/A   Scattered Clouds
6:55 PM 76.5 °F - 17.4 °F 11% 29.73 in 5.0 mi WNW 32.2 mph 39.1 mph N/A   Haze
7:15 PM 75.2 °F - 10.9 °F 9% 29.75 in 5.0 mi WNW 26.5 mph 39.1 mph N/A   Haze
7:35 PM 73.6 °F - 10.0 °F 9% 29.77 in 7.0 mi WNW 28.8 mph 39.1 mph N/A   Overcast
7:55 PM 63.3 °F - 33.8 °F 33% 29.83 in 2.0 mi North 39.1 mph 51.8 mph N/A   Haze
8:15 PM 60.4 °F - 34.2 °F 37% 29.87 in 7.0 mi North 28.8 mph 42.6 mph N/A   Mostly Cloudy
8:35 PM 59.4 °F - 33.6 °F 38% 29.89 in 10.0 mi North 32.2 mph 42.6 mph N/A   Scattered Clouds
8:55 PM 57.2 °F - 33.4 °F 41% 29.90 in 10.0 mi North 29.9 mph 41.4 mph N/A   Clear
9:15 PM 55.4 °F - 32.4 °F 42% 29.93 in 10.0 mi North 23.0 mph 39.1 mph N/A   Clear
9:35 PM 54.0 °F - 32.0 °F 43% 29.95 in 10.0 mi NNW 27.6 mph 40.3 mph N/A   Clear
10:55 PM 48.6 °F - 30.6 °F 50% 30.01 in 10.0 mi North 31.1 mph 41.4 mph N/A   Clear
11:15 PM 47.7 °F - 30.9 °F 52% 30.03 in 10.0 mi North 26.5 mph 39.1 mph N/A   Clear
11:35 PM 46.9 °F - 31.1 °F 54% 30.05 in 10.0 mi North 20.7 mph 27.6 mph N/A   Clear
11:55 PM 46.2 °F 38.7 °F 31.6 °F 57% 30.06 in 10.0 mi North 19.6 mph 25.3 mph N/A   Clear